www.pogodaiklimat.ru

Погода и климат >> Архив погоды >> Великобритания >> Уэйнфлит


ПОГОДА в Уэйнфлите

  • Прогноз погоды в Уэйнфлите
  • Монитор погоды в Уэйнфлите

АРХИВ ПОГОДЫ в Уэйнфлите

Время (UTC), дата Ветер
(напр.,м/с)
 
Видим.   Явления Облачность Т
(С)
Тd
(С)
f
(%)
Тe
(С)
Тes
(С)
Комфортность P
(гПа)
Po
(гПа)
Тmin
(С)
Tmax
(С)
R
(мм)
R24
(мм)
S
(см)
16 14.09 Ю 6 35 км н/о +19.7 +8.8 49 +20 +20 1028.3 1027.9
17 14.09 ЮЗ 5 30 км н/о +20.3 +8.0 45 +21 +21 комфорт 1027.6 1027.2
18 14.09 ЮЗ 4 30 км н/о +17.2 +9.8 62 +17 +17 1027.4 1027.1 +21.4
19 14.09 ЮЗ 4 30 км н/о +14.7 +9.4 71 +14 +14 1026.9 1026.6
20 14.09 ЮЗ 4 28 км н/о +12.5 +8.9 79 +11 +11 1026.7 1026.3
21 14.09 ЮЗ 5 30 км н/о +13.0 +8.5 74 +11 +11 1026.0 1025.6
22 14.09 ЮЗ 5 28 км н/о +13.0 +8.4 74 +11 +11 1025.7 1025.3
23 14.09 ЮЗ 6 26 км н/о +12.8 +8.4 75 +10 +10 1024.8 1024.5
00 15.09 ЮЗ 5 5000 м н/о +11.8 +8.3 79 +9 +9 1024.6 1024.2 2
01 15.09 ЮЗ 5 22 км н/о +12.4 +8.7 78 +10 +10 1024.1 1023.8
02 15.09 ЮЗ 4 20 км н/о +10.4 +8.4 87 +8 +8 1023.4 1023.0
03 15.09 З 5 22 км н/о +12.8 +9.6 81 +11 +11 1022.9 1022.5
04 15.09 ЮЗ 5 20 км н/о +11.4 +9.3 87 +9 +9 1022.4 1022.1
05 15.09 ЮЗ 4 19 км н/о +10.8 +9.3 90 +8 +8 1022.3 1022.0
06 15.09 ЮЗ 5 23 км н/о +10.7 +9.0 89 +8 +8 1022.5 1022.1 +10.3
07 15.09 ЮЗ 4 25 км н/о +12.5 +10.0 85 +11 +11 1022.9 1022.5
08 15.09 З 4 25 км н/о +14.1 +11.0 82 +13 +13 1023.1 1022.7
09 15.09 З 4 30 км н/о +17.0 +12.5 75 +17 +17 1023.1 1022.7
10 15.09 СЗ 7 30 км н/о +19.5 +13.7 69 +21 +21 комфорт 1023.2 1022.8
11 15.09 З 6 30 км н/о +19.1 +13.7 71 +20 +20 1023.2 1022.9
12 15.09 З 5 30 км н/о +19.8 +14.2 70 +22 +22 комфорт 1023.1 1022.8
13 15.09 З 4 35 км н/о +19.4 +14.3 72 +21 +21 комфорт 1022.9 1022.6
14 15.09 З 5 30 км н/о +18.5 +14.4 77 +19 +19 1022.8 1022.5
15 15.09 СЗ 3 30 км н/о +18.3 +14.4 78 +19 +19 1022.7 1022.3
16 15.09 СВ 5 35 км н/о +16.3 +11.2 72 +15 +15 1022.9 1022.6
17 15.09 СВ 3 30 км н/о +16.0 +11.5 75 +16 +16 1022.8 1022.5
18 15.09 В 3 30 км н/о +15.6 +12.7 83 +15 +15 1022.7 1022.3 +20.3
19 15.09 В 3 25 км н/о +15.0 +10.9 76 +14 +14 1022.9 1022.5
20 15.09 В 3 19 км н/о +14.3 +11.9 85 +14 +14 1022.7 1022.3
21 15.09 СВ 3 17 км н/о +13.6 +11.0 84 +12 +12 1022.6 1022.3
22 15.09 СВ 3 8000 м н/о +12.7 +11.1 90 +11 +11 1022.8 1022.4
23 15.09 СВ 3 7000 м н/о +12.0 +11.4 96 +10 +10 1022.6 1022.2
00 16.09 СВ 2 17 км н/о +12.1 +11.6 97 +11 +11 1022.5 1022.1 2
01 16.09 В 3 5000 м н/о +12.2 +11.9 98 +11 +11 1021.9 1021.6
02 16.09 СВ 2 3400 м н/о +12.3 +12.0 98 +12 +12 1021.8 1021.4
03 16.09 С 2 4000 м н/о +12.3 +12.1 99 +11 +11 1021.5 1021.1
04 16.09 С 3 7000 м н/о +12.1 +12.0 99 +11 +11 1021.0 1020.6
05 16.09 С 4 2600 м н/о +11.8 +11.7 99 +10 +10 1020.9 1020.6
06 16.09 С 3 3800 м н/о +11.8 +11.7 99 +10 +10 1021.1 1020.8 +11.8 7
07 16.09 С 2 15 км н/о +12.1 +12.0 99 +11 +11 1021.4 1021.0
08 16.09 С 3 24 км н/о +12.6 +12.1 97 +11 +11 1021.9 1021.5
09 16.09 С 3 19 км н/о +13.4 +12.2 92 +12 +12 1022.1 1021.8
10 16.09 С 3 5000 м н/о +12.9 +11.6 92 +11 +11 1022.5 1022.1
11 16.09 С 3 17 км н/о +13.2 +11.9 92 +12 +12 1022.5 1022.2
12 16.09 С 2 21 км н/о +14.9 +11.1 78 +15 +15 1022.3 1021.9
13 16.09 СЗ 3 24 км н/о +15.1 +11.0 76 +15 +15 1022.5 1022.1
14 16.09 СВ 4 24 км н/о +14.7 +11.4 81 +14 +14 1022.5 1022.1
15 16.09 ЮВ 2 24 км н/о +14.2 +11.2 82 +14 +14 1022.4 1022.1
16 16.09 Ю 3 23 км н/о +14.4 +11.3 82 +14 +14 1022.1 1021.7
17 16.09 Ю 2 23 км н/о +14.6 +11.5 82 +14 +14 1022.2 1021.8
18 16.09 ЮВ 2 21 км н/о +13.3 +11.3 88 +13 +13 1022.5 1022.1 +16.2
19 16.09 В 2 18 км н/о +11.0 +9.9 93 +10 +10 1022.7 1022.3
20 16.09 ЮВ 2 16 км н/о +10.4 +9.7 95 +9 +9 1023.2 1022.8
21 16.09 Ю 3 18 км н/о +11.3 +10.6 95 +10 +10 1022.7 1022.4
22 16.09 ЮЗ 2 10 км н/о +10.2 +9.6 96 +9 +9 1022.7 1022.3
23 16.09 З 3 4300 м н/о +9.1 +8.7 97 +6 +6 1022.6 1022.3
00 17.09 З 4 20 км н/о +9.0 +8.3 95 +6 +6 1022.6 1022.2
01 17.09 З 4 12 км н/о +7.6 +7.1 97 +4 +4 1022.8 1022.4
02 17.09 З 4 14 км н/о +7.6 +7.2 97 +4 +4 1023.1 1022.8
03 17.09 З 4 16 км н/о +7.4 +6.9 97 +4 +4 1023.0 1022.6
04 17.09 З 4 10 км н/о +7.3 +7.0 98 +4 +4 1022.8 1022.4
05 17.09 З 4 9000 м н/о +6.9 +6.5 97 +3 +3 1023.0 1022.6
06 17.09 З 4 12 км н/о +6.4 +6.1 98 +3 +3 1023.4 1023.1 +6.0 0.2
07 17.09 З 3 20 км н/о +7.7 +7.4 98 +5 +5 1023.8 1023.4
08 17.09 СЗ 3 28 км н/о +9.9 +8.7 92 +8 +8 1024.4 1024.0
09 17.09 СЗ 5 30 км н/о +12.2 +9.5 84 +10 +10 1024.6 1024.2
10 17.09 С 6 30 км н/о +13.4 +8.8 74 +11 +11 1025.0 1024.6
11 17.09 С 4 21 км н/о +15.0 +9.4 69 +14 +14 1025.5 1025.1
12 17.09 С 6 30 км н/о +15.6 +8.5 63 +14 +14 1025.7 1025.3
13 17.09 СВ 6 30 км н/о +14.7 +7.3 61 +13 +13 1025.8 1025.5
14 17.09 СВ 7 30 км н/о +15.0 +7.3 60 +13 +13 1026.2 1025.8
15 17.09 СВ 7 35 км н/о +14.4 +6.9 61 +12 +12 1026.5 1026.1
16 17.09 С 7 28 км н/о +13.8 +7.1 64 +12 +12 1026.6 1026.3
17 17.09 СВ 7 30 км н/о +12.9 +6.4 65 +10 +10 1027.0 1026.7
18 17.09 СВ 5 28 км н/о +11.5 +6.5 71 +9 +9 1027.2 1026.8 +15.9
19 17.09 С 4 26 км н/о +9.5 +6.1 79 +7 +7 1027.6 1027.3
20 17.09 С 3 26 км н/о +8.4 +5.7 83 +6 +6 1028.1 1027.7
21 17.09 С 3 25 км н/о +7.6 +5.7 88 +5 +5 1028.4 1028.0
22 17.09 СЗ 2 23 км н/о +7.1 +5.4 89 +5 +5 1028.6 1028.2
23 17.09 СЗ 3 15 км н/о +6.1 +4.9 92 +3 +3 1028.8 1028.4
00 18.09 З 3 20 км н/о +5.5 +4.5 93 +2 +2 1028.8 1028.4
01 18.09 СЗ 3 20 км н/о +5.2 +4.3 94 +2 +2 1029.0 1028.6
02 18.09 СЗ 3 22 км н/о +5.0 +4.3 95 +2 +2 1029.0 1028.6
03 18.09 СЗ 3 22 км н/о +5.1 +4.6 97 +2 +2 1029.1 1028.8
04 18.09 СЗ 2 23 км н/о +5.6 +4.8 95 +3 +3 1029.1 1028.7
05 18.09 СЗ 2 21 км н/о +4.6 +3.8 95 +2 +2 1029.1 1028.8
06 18.09 СЗ 2 21 км н/о +4.9 +4.3 96 +2 +2 1029.4 1029.0 +4.6
07 18.09 СЗ 2 24 км н/о +6.7 +6.2 97 +5 +5 1030.1 1029.7
08 18.09 СЗ 2 19 км н/о +10.8 +8.2 84 +10 +10 1030.2 1029.9
09 18.09 СЗ 2 30 км н/о +13.4 +8.5 72 +13 +13 1030.8 1030.4
10 18.09 З 2 13 км н/о +14.6 +7.1 61 +14 +14 1030.5 1030.1
11 18.09 З 3 22 км н/о +15.4 +6.6 56 +15 +15 1030.3 1029.9
12 18.09 З 3 11 км н/о +16.5 +6.9 53 +16 +16 1030.2 1029.9
13 18.09 З 3 27 км н/о +16.1 +6.7 54 +16 +16 1029.9 1029.5
14 18.09 ЮЗ 3 27 км н/о +16.9 +7.8 55 +17 +17 1029.7 1029.3
15 18.09 Ю 4 30 км н/о +16.7 +8.8 60 +16 +16 1029.2 1028.8
16 18.09 ЮЗ 3 9000 м н/о +17.1 +9.5 61 +17 +17 1028.8 1028.4
17 18.09 СЗ 3 5000 м н/о +15.8 +7.4 57 +16 +16 1029.1 1028.7
18 18.09 СЗ 3 27 км н/о +13.6 +7.0 64 +13 +13 1029.2 1028.9 +17.8
19 18.09 В 3 24 км н/о +11.2 +8.4 83 +9 +9 1029.7 1029.3
20 18.09 В 2 23 км н/о +10.5 +8.6 88 +9 +9 1030.2 1029.8
21 18.09 ЮВ 2 24 км н/о +10.8 +9.1 89 +10 +10 1030.5 1030.1
22 18.09 штиль 0 18 км н/о +9.6 +8.0 90 +9 +9 1030.7 1030.3
23 18.09 З 1 17 км н/о +7.6 +6.5 93 +7 +7 1030.6 1030.3
00 19.09 СЗ 2 12 км н/о +8.1 +7.5 96 +6 +6 1030.8 1030.4
01 19.09 СЗ 1 10 км н/о +7.1 +6.3 95 +6 +6 1030.7 1030.3
02 19.09 СЗ 1 11 км н/о +6.4 +5.9 97 +6 +6 1030.5 1030.2
03 19.09 З 1 11 км н/о +6.3 +5.9 97 +6 +6 1030.7 1030.3
04 19.09 Ю 1 11 км н/о +6.4 +6.0 97 +5 +5 1030.6 1030.2
05 19.09 ЮЗ 1 11 км н/о +5.9 +5.6 98 +4 +4 1030.7 1030.4
06 19.09 ЮЗ 3 6000 м н/о +5.9 +5.6 98 +3 +3 1031.1 1030.7 +5.3
07 19.09 З 3 9000 м н/о +8.1 +8.0 99 +5 +5 1031.3 1030.9
08 19.09 ЮЗ 1 11 км н/о +11.7 +9.9 89 +11 +11 1032.0 1031.6
09 19.09 ЮЗ 3 16 км н/о +14.6 +9.7 72 +14 +14 1032.1 1031.8
10 19.09 ЮЗ 3 22 км н/о +16.8 +8.6 58 +17 +17 1032.2 1031.8
11 19.09 Ю 4 30 км н/о +17.1 +8.7 58 +17 +17 1032.0 1031.6
12 19.09 Ю 4 26 км н/о +17.6 +8.8 56 +17 +17 1031.6 1031.3
13 19.09 Ю 4 26 км н/о +18.5 +9.7 57 +19 +19 1031.2 1030.8
14 19.09 Ю 4 25 км н/о +18.5 +9.9 57 +19 +19 1031.0 1030.6
15 19.09 Ю 4 24 км н/о +19.0 +10.5 58 +20 +20 1030.5 1030.1
16 19.09 Ю 5 35 км н/о +18.8 +10.3 58 +19 +19 1030.2 1029.9
17 19.09 ЮВ 3 45 км н/о +18.4 +10.5 60 +19 +19 1030.0 1029.6
18 19.09 ЮВ 4 40 км н/о +15.1 +11.2 78 +14 +14 1030.0 1029.6 +19.0
19 19.09 ЮВ 4 35 км н/о +14.3 +11.7 84 +13 +13 1030.2 1029.9
20 19.09 ЮВ 5 45 км н/о +14.4 +11.5 83 +13 +13 1030.2 1029.9
21 19.09 ЮВ 6 40 км н/о +14.7 +11.8 83 +13 +13 1030.3 1029.9
22 19.09 Ю 6 40 км н/о +14.3 +11.6 84 +12 +12 1030.3 1029.9
23 19.09 Ю 5 40 км н/о +13.4 +10.5 83 +11 +11 1030.2 1029.9
00 20.09 Ю 4 27 км н/о +12.0 +10.0 88 +10 +10 1030.4 1030.0
01 20.09 ЮЗ 3 30 км н/о +10.7 +9.3 91 +9 +9 1030.2 1029.9
02 20.09 ЮЗ 3 29 км н/о +10.3 +9.3 94 +8 +8 1029.8 1029.4
03 20.09 ЮЗ 3 20 км н/о +9.7 +9.1 96 +8 +8 1029.4 1029.0
04 20.09 ЮЗ 2 9000 м н/о +8.5 +7.8 95 +6 +6 1029.0 1028.7
05 20.09 З 2 9000 м н/о +8.9 +8.5 97 +7 +7 1028.7 1028.4
06 20.09 ЮЗ 2 1100 м н/о +7.9 +7.7 99 +6 +6 1028.6 1028.3 +7.1
07 20.09 З 2 9000 м н/о +9.4 +9.2 99 +8 +8 1028.7 1028.3
08 20.09 ЮЗ 1 17 км н/о +13.0 +12.7 98 +13 +13 1028.8 1028.5
09 20.09 Ю 3 30 км н/о +15.3 +12.5 83 +15 +15 1028.8 1028.5
10 20.09 Ю 3 35 км н/о +16.1 +12.5 79 +16 +16 1028.5 1028.1
11 20.09 ЮВ 3 55 км н/о +16.9 +12.6 76 +17 +17 1028.1 1027.8
12 20.09 ЮВ 4 40 км н/о +17.7 +12.5 72 +18 +18 1027.4 1027.1
13 20.09 ЮВ 5 45 км н/о +18.1 +11.5 65 +18 +18 1026.8 1026.4
14 20.09 В 5 45 км н/о +18.5 +12.7 69 +19 +19 1026.1 1025.7
15 20.09 В 7 45 км н/о +18.1 +13.9 76 +18 +18 1025.2 1024.8
16 20.09 В 6 35 км н/о +17.5 +13.8 79 +17 +17 1024.2 1023.9
17 20.09 В 7 35 км н/о +16.8 +13.6 81 +16 +16 1023.4 1023.0
18 20.09 В 5 35 км н/о +15.5 +12.6 83 +14 +14 1023.1 1022.8 +19.3
19 20.09 В 6 45 км н/о +14.7 +10.5 76 +13 +13 1023.0 1022.6
20 20.09 ЮВ 7 45 км н/о +14.3 +10.9 80 +12 +12 1022.5 1022.2
21 20.09 В 7 35 км н/о +13.9 +11.2 84 +12 +12 1022.2 1021.8
22 20.09 ЮВ 5 30 км н/о +13.4 +11.1 86 +11 +11 1022.0 1021.7
23 20.09 В 5 26 км н/о +13.1 +11.6 91 +11 +11 1021.4 1021.0
00 21.09 В 5 27 км н/о +13.5 +12.1 91 +12 +12 1020.7 1020.3
01 21.09 В 5 26 км н/о +13.4 +11.7 89 +11 +11 1020.4 1020.0
02 21.09 В 5 25 км н/о +13.4 +11.5 88 +11 +11 1019.4 1019.1
03 21.09 В 5 23 км н/о +13.6 +11.9 89 +12 +12 1018.9 1018.5
04 21.09 В 6 18 км н/о +13.6 +11.8 89 +11 +11 1018.0 1017.6
05 21.09 В 6 22 км н/о +13.4 +11.4 88 +11 +11 1017.5 1017.2
06 21.09 В 6 22 км н/о +13.3 +11.5 89 +11 +11 1017.2 1016.9 +13.0
07 21.09 В 5 20 км н/о +14.5 +12.1 86 +13 +13 1017.0 1016.7
08 21.09 ЮВ 5 25 км н/о +15.8 +12.5 81 +15 +15 1016.8 1016.5
09 21.09 В 5 18 км н/о +16.8 +12.8 77 +16 +16 1016.4 1016.0
10 21.09 В 6 35 км н/о +17.7 +12.9 73 +17 +17 1015.6 1015.3
11 21.09 В 6 40 км н/о +18.7 +12.8 69 +19 +19 1014.7 1014.3
12 21.09 В 7 30 км н/о +19.3 +13.7 70 +20 +20 1013.6 1013.3
13 21.09 В 7 30 км н/о +19.1 +14.4 74 +20 +20 1013.0 1012.7
14 21.09 В 8 30 км н/о +18.6 +13.8 74 +18 +18 1012.2 1011.8

 

Местоположение метеостанции Уэйнфлит (Великобритания): широта 53.08 долгота 0.27 высота над уровнем моря 5 м.

В архиве по умолчанию представлена погода в Уэйнфлите за последнюю неделю. Архивные данные за месяц целиком и за предыдущие месяцы, начиная с января 2011 года, Вы можете получить, выбрав интересующий диапазон дат из раскрывающегося списка и нажав кнопку "Ввод!".


*Определитесь, кто Вы:
робот инопланетянин человек

Внимание! Время в таблицах - всемирное. Для получения местного времени необходимо прибавить поправку, которая равна 0 ч.

Смотрите также архив погоды в соседних городах и на ближайших метеорологических станциях:

Погода в Холбиче (Великобритания) (25 км)
Погода на Авиабазе Coningsby (Великобритания) (29 км)
Погода в Донна Нук (Великобритания) (46 км)
Погода в Крануэлле (Великобритания) (52 км)
Погода в Мархеме (Великобритания) (52 км)
Погода в Уоддингтоне (Великобритания) (54 км)
Погода в Уэйборне (Великобритания) (59 км)
Погода в Скемптоне (Великобритания) (60 км)
Погода в Виттеринге (Великобритания) (71 км)
Погода в Леконфилде (Великобритания) (99 км)

Пояснения к столбцам:

Ветер - указаны скорость ветра в м/с - средняя за 10 мин, порывы в срок и между сроками (в фигурных скобках) и направление, откуда дует ветер: С - северный, СВ - северо-восточный, В - восточный, ЮВ - юго-восточный, Ю - южный, ЮЗ - юго-западный, З - западный, СЗ - северо-западный.
Видимость - горизонтальная дальность видимости в метрах или километрах. При видимости от 1 до 10 км при отсутствии осадков обычно наблюдается дымка, при ухудшении видимости до 1 км и менее - туман. В сухую погоду видимость может ухудшаться дымом, пылью или мглою.
Явления - указаны атмосферные явления, наблюдавшиеся в срок или в последний час перед сроком; фигурными скобками обозначены явления, наблюдавшиеся между сроками (за 1-3 часа до срока); квадратными скобками обозначены град или гололедные отложения с указанием их диаметра в мм.
Облачность - указаны через наклонную черту общая и нижняя облачность в баллах и высота нижней границы облаков в метрах; квадратными скобками обозначены формы облаков: Ci - перистые, Cs - перисто-слоистые, Cc - перисто-кучевые, Ac - высококучевые, As - высокослоистые, Sc - слоисто-кучевые, Ns - слоисто-дождевые, Cu - кучевые, Cb - кучево-дождевые. Подробнее классификацию облаков см. в Атласе облаков (PDF).
T - Температура воздуха - температура, измеренная на высоте 2 м над землей.
Td - Температура точки росы - температура, при понижении до которой содержащийся в воздухе водяной пар достигнет насыщения.
f - Относительная влажность воздуха - влажноcть воздуха, измеренная на высоте 2 м над землей.
Te - Эффективная температура - температура, которую ощущает одетый по сезону человек в тени. Характеристика душности погоды. При расчете учитывается влияние влажности воздуха и скорости ветра на теплоощущения человека.
Tes - Эффективная температура на солнце - температура, которую ощущает человек, с поправкой на солнечный нагрев. Характеристика знойности погоды. Зависит от высоты солнца над горизонтом, облачности и скорости ветра. Ночью, в пасмурную погоду, а также при ветре 12 м/с и более поправка равна нулю.
P - Атмосферное давление - приведенное к уровню моря атмосферное давление.
Po - Атмосферное давление - измеренное на уровне метеостанции атмосферное давление.
Tmin - Минимальная температура - минимум температуры воздуха на высоте 2 м над землей.
Tmax - Максимальная температура - максимум температуры воздуха на высоте 2 м над землей.
R - Количество осадков - Количество выпавших осадков за период времени, мм. При наведении курсора мыши на число - период времени, за который выпало указанное количество осадков.
R24 - Количество осадков - Количество выпавших осадков за 24 часа, мм.
S - Снежный покров - Высота снежного покрова, см. При наведении курсора мыши на число - состояние снежного покрова и степень покрытия местности в баллах.